Gainesville, GA

2:27 PM EDT on September 26, 2016 (GMT -0400)
Gilmer Memorial

Weather History for KGVL - April, 2013

Change the Weather History Date:

Wednesday, April 24, 2013

  Actual Average Record
Temperature  
Mean Temperature 65 °F 63 °F  
Max Temperature 75 °F 73 °F 90 °F (1960)
Min Temperature 54 °F 52 °F 34 °F (1969)
Degree Days  
Heating Degree Days 0 4  
Month to date heating degree days 133 154  
Since 1 July heating degree days 159 3006  
Cooling Degree Days 0 1  
Month to date cooling degree days 31 22  
Year to date cooling degree days 31 27  
Growing Degree Days 14 (Base 50)    
Moisture  
Dew Point 55 °F    
Average Humidity 70    
Maximum Humidity 93    
Minimum Humidity 46    
Precipitation  
Precipitation 0.16 in 0.13 in 1.79 in (1967)
Month to date precipitation 3.33 2.83  
Year to date precipitation 4.04 18.15  
Snow  
Snow 0.00 in - - ()
Month to date snowfall 0.0  
Since 1 July snowfall 0.0  
Snow Depth 0.00 in    
Sea Level Pressure  
Sea Level Pressure 30.11 in    
Wind  
Wind Speed 6 mph (WSW)    
Max Wind Speed 18 mph    
Max Gust Speed 26 mph    
Visibility 8 miles    
Events Rain    
T = Trace of Precipitation, MM = Missing Value Source: NWS Daily Summary

Daily Weather History Graph

Daily Weather History Graph

Search for Another Location

Airport or City:

Trip Planner

Search our weather history database for the weather conditions in past years. The results will help you decide how hot, cold, wet, or windy it might be!

Date:

Astronomy

Apr. 24, 2013 Rise Set
Actual Time 6:53 AM EDT 8:14 PM EDT
Civil Twilight 6:26 AM EDT 8:40 PM EDT
Nautical Twilight 5:55 AM EDT 9:12 PM EDT
Astronomical Twilight 5:22 AM EDT 9:45 PM EDT
Moon 7:17 PM EDT (4/24) 5:53 AM EDT (4/24)
Length of Visible Light 14h 13m
Length of Day
13h 21m
Waxing Gibbous, 98% of the Moon is Illuminated
Apr 24
Waxing Gibbous
Apr 25
Full
May 2
Last Quarter
May 9
New
May 18
First Quarter

Hourly Weather History & Observations

Time (EDT) Temp. Dew Point Humidity Pressure Visibility Wind Dir Wind Speed Gust Speed Precip Events Conditions
12:53 AM 61.0 °F 46.0 °F 58% 30.11 in 10.0 mi SSE 3.5 mph - N/A   Clear
1:53 AM 57.9 °F 46.9 °F 67% 30.11 in 10.0 mi Calm Calm - N/A   Clear
2:53 AM 55.0 °F 46.9 °F 74% 30.11 in 10.0 mi Calm Calm - N/A   Mostly Cloudy
3:53 AM 55.9 °F 48.0 °F 75% 30.10 in 10.0 mi Calm Calm - N/A   Overcast
4:53 AM 57.0 °F 50.0 °F 77% 30.09 in 10.0 mi Calm Calm - N/A   Overcast
6:53 AM 55.0 °F 48.0 °F 77% 30.11 in 10.0 mi Calm Calm - N/A   Mostly Cloudy
7:53 AM 55.0 °F 48.9 °F 80% 30.12 in 10.0 mi South 6.9 mph - N/A   Overcast
8:53 AM 57.9 °F 51.1 °F 78% 30.10 in 10.0 mi South 5.8 mph - N/A   Scattered Clouds
9:53 AM 62.1 °F 52.0 °F 70% 30.10 in 10.0 mi SSW 8.1 mph - N/A   Clear
10:53 AM 68.0 °F 53.1 °F 59% 30.12 in 10.0 mi SSW 9.2 mph 17.3 mph N/A   Mostly Cloudy
11:53 AM 71.1 °F 53.1 °F 53% 30.13 in 10.0 mi SW 11.5 mph 20.7 mph N/A   Mostly Cloudy
12:53 PM 71.1 °F 51.1 °F 49% 30.10 in 10.0 mi SW 11.5 mph 24.2 mph N/A   Scattered Clouds
1:53 PM 73.0 °F 52.0 °F 48% 30.08 in 10.0 mi SW 9.2 mph 18.4 mph N/A   Scattered Clouds
2:53 PM 73.0 °F 52.0 °F 48% 30.07 in 10.0 mi SW 13.8 mph 20.7 mph N/A   Scattered Clouds
3:53 PM 71.1 °F 53.1 °F 53% 30.06 in 10.0 mi WSW 12.7 mph 19.6 mph N/A   Overcast
4:53 PM 68.0 °F 55.0 °F 63% 30.09 in 10.0 mi West 16.1 mph 23.0 mph 0.00 in Rain Light Rain
5:24 PM 62.6 °F 57.2 °F 82% 30.12 in 2.0 mi West 6.9 mph - 0.04 in Rain Rain
5:38 PM 62.6 °F 59.0 °F 88% 30.11 in 3.0 mi WSW 5.8 mph - 0.07 in Rain Rain
5:53 PM 62.1 °F 59.0 °F 90% 30.09 in 3.0 mi SW 5.8 mph - 0.10 in Rain Rain
6:04 PM 62.6 °F 59.0 °F 88% 30.11 in 2.5 mi SW 5.8 mph - 0.02 in Rain Light Rain
6:25 PM 62.6 °F 59.0 °F 88% 30.11 in 4.0 mi SW 4.6 mph - 0.06 in Rain Light Rain
6:53 PM 62.1 °F 60.1 °F 93% 30.09 in 7.0 mi WSW 4.6 mph - 0.06 in Rain Light Rain
7:12 PM 62.6 °F 60.8 °F 94% 30.11 in 7.0 mi West 3.5 mph - N/A   Overcast
7:53 PM 62.1 °F 59.0 °F 90% 30.08 in 7.0 mi West 4.6 mph - N/A   Overcast
8:53 PM 62.1 °F 60.1 °F 93% 30.09 in 7.0 mi WSW 3.5 mph - N/A   Overcast
9:51 PM 60.8 °F 59.0 °F 94% 30.12 in 6.0 mi SW 3.5 mph - N/A   Overcast
9:53 PM 62.1 °F 59.0 °F 90% 30.09 in 6.0 mi SW 3.5 mph - N/A   Overcast
10:46 PM 62.6 °F 60.8 °F 94% 30.12 in 6.0 mi SW 3.5 mph - N/A   Overcast
10:53 PM 62.1 °F 59.0 °F 90% 30.10 in 6.0 mi WNW 5.8 mph - N/A   Overcast
11:03 PM 62.6 °F 60.8 °F 94% 30.13 in 5.0 mi West 5.8 mph - N/A   Overcast
11:08 PM 62.6 °F 60.8 °F 94% 30.13 in 5.0 mi West 5.8 mph - N/A   Overcast
11:32 PM 62.6 °F 57.2 °F 82% 30.13 in 9.0 mi West 10.4 mph 18.4 mph N/A   Overcast
11:42 PM 60.8 °F 57.2 °F 88% 30.14 in 10.0 mi WNW 9.2 mph - N/A   Overcast
11:53 PM 60.1 °F 57.0 °F 90% 30.11 in 10.0 mi West 8.1 mph - N/A   Overcast